Year,Month,Day,Hour,Minute,Value (Times are PST for temperature in C)
2017,06,24,00,00,13.60
2017,06,24,00,01,13.50
2017,06,24,00,02,13.50
2017,06,24,00,03,13.50
2017,06,24,00,04,13.50
2017,06,24,00,05,13.40
2017,06,24,00,06,13.40
2017,06,24,00,07,13.40
2017,06,24,00,08,13.30
2017,06,24,00,09,13.30
2017,06,24,00,10,13.30
2017,06,24,00,11,13.30
2017,06,24,00,12,13.30
2017,06,24,00,13,13.30
2017,06,24,00,14,13.30
2017,06,24,00,15,13.30
2017,06,24,00,16,13.30
2017,06,24,00,17,13.30
2017,06,24,00,18,13.30
2017,06,24,00,19,13.30
2017,06,24,00,20,13.30
2017,06,24,00,21,13.30
2017,06,24,00,22,13.30
2017,06,24,00,23,13.30
2017,06,24,00,24,13.30
2017,06,24,00,25,13.30
2017,06,24,00,26,13.30
2017,06,24,00,27,13.30
2017,06,24,00,28,13.30
2017,06,24,00,29,13.30
2017,06,24,00,30,13.30
2017,06,24,00,31,13.30
2017,06,24,00,32,13.30
2017,06,24,00,33,13.40
2017,06,24,00,34,13.40
2017,06,24,00,35,13.50
2017,06,24,00,36,13.50
2017,06,24,00,37,13.50
2017,06,24,00,38,13.50
2017,06,24,00,39,13.60
2017,06,24,00,40,13.60
2017,06,24,00,41,13.70
2017,06,24,00,42,13.70
2017,06,24,00,43,13.70
2017,06,24,00,44,13.70
2017,06,24,00,45,13.70
2017,06,24,00,46,13.70
2017,06,24,00,47,13.80
2017,06,24,00,48,13.80
2017,06,24,00,49,13.80
2017,06,24,00,50,13.80
2017,06,24,00,51,13.90
2017,06,24,00,52,13.90
2017,06,24,00,53,13.90
2017,06,24,00,54,13.90
2017,06,24,00,55,14.00
2017,06,24,00,56,14.00
2017,06,24,00,57,14.10
2017,06,24,00,58,14.10
2017,06,24,00,59,14.20
2017,06,24,01,00,14.20
2017,06,24,01,01,14.20
2017,06,24,01,02,14.20
2017,06,24,01,03,14.20
2017,06,24,01,04,14.20
2017,06,24,01,05,14.20
2017,06,24,01,06,14.20
2017,06,24,01,07,14.20
2017,06,24,01,08,14.20
2017,06,24,01,09,14.20
2017,06,24,01,10,14.10
2017,06,24,01,11,14.10
2017,06,24,01,12,14.00
2017,06,24,01,13,14.00
2017,06,24,01,14,13.90
2017,06,24,01,15,13.90
2017,06,24,01,16,13.80
2017,06,24,01,17,13.80
2017,06,24,01,18,13.80
2017,06,24,01,19,13.80
2017,06,24,01,20,13.70
2017,06,24,01,21,13.70
2017,06,24,01,22,13.70
2017,06,24,01,23,13.70
2017,06,24,01,24,13.60
2017,06,24,01,25,13.60
2017,06,24,01,26,13.50
2017,06,24,01,27,13.50
2017,06,24,01,28,13.50
2017,06,24,01,29,13.40
2017,06,24,01,30,13.40
2017,06,24,01,31,13.40
2017,06,24,01,32,13.40
2017,06,24,01,33,13.40
2017,06,24,01,34,13.40
2017,06,24,01,35,13.30
2017,06,24,01,36,13.30
2017,06,24,01,37,13.30
2017,06,24,01,38,13.30
2017,06,24,01,39,13.30
2017,06,24,01,40,13.30
2017,06,24,01,41,13.30
2017,06,24,01,42,13.30
2017,06,24,01,43,13.30
2017,06,24,01,44,13.20
2017,06,24,01,45,13.20
2017,06,24,01,46,13.20
2017,06,24,01,47,13.20
2017,06,24,01,48,13.20
2017,06,24,01,49,13.20
2017,06,24,01,50,13.10
2017,06,24,01,51,13.10
2017,06,24,01,52,13.10
2017,06,24,01,53,13.10
2017,06,24,01,54,13.10
2017,06,24,01,55,13.10
2017,06,24,01,56,13.10
2017,06,24,01,57,13.10
2017,06,24,01,58,13.10
2017,06,24,01,59,13.10
2017,06,24,02,00,13.10
2017,06,24,02,01,13.10
2017,06,24,02,02,13.10
2017,06,24,02,03,13.10
2017,06,24,02,04,13.00
2017,06,24,02,05,13.00
2017,06,24,02,06,12.90
2017,06,24,02,07,12.90
2017,06,24,02,08,12.90
2017,06,24,02,09,12.80
2017,06,24,02,10,12.80
2017,06,24,02,11,12.80
2017,06,24,02,12,12.80
2017,06,24,02,13,12.90
2017,06,24,02,14,12.90
2017,06,24,02,15,12.80
2017,06,24,02,16,12.80
2017,06,24,02,17,12.80
2017,06,24,02,18,12.80
2017,06,24,02,19,12.80
2017,06,24,02,20,12.80
2017,06,24,02,21,12.80
2017,06,24,02,22,12.80
2017,06,24,02,23,12.90
2017,06,24,02,24,12.90
2017,06,24,02,25,12.90
2017,06,24,02,26,12.90
2017,06,24,02,27,12.90
2017,06,24,02,28,12.90
2017,06,24,02,29,12.90
2017,06,24,02,30,12.80
2017,06,24,02,31,12.80
2017,06,24,02,32,12.80
2017,06,24,02,33,12.80
2017,06,24,02,34,12.80
2017,06,24,02,35,12.80
2017,06,24,02,36,12.80
2017,06,24,02,37,12.80
2017,06,24,02,38,12.80
2017,06,24,02,39,12.80
2017,06,24,02,40,12.80
2017,06,24,02,41,12.80
2017,06,24,02,42,12.80
2017,06,24,02,43,12.80
2017,06,24,02,44,12.80
2017,06,24,02,45,12.80
2017,06,24,02,46,12.90
2017,06,24,02,47,12.90
2017,06,24,02,48,12.90
2017,06,24,02,49,12.90
2017,06,24,02,50,12.90
2017,06,24,02,51,12.90
2017,06,24,02,52,12.90
2017,06,24,02,53,12.90
2017,06,24,02,54,12.90
2017,06,24,02,55,12.90
2017,06,24,02,56,12.90
2017,06,24,02,57,12.90
2017,06,24,02,58,12.90
2017,06,24,02,59,12.90
2017,06,24,03,00,12.90
2017,06,24,03,01,12.90
2017,06,24,03,02,12.80
2017,06,24,03,03,12.80
2017,06,24,03,04,12.80
2017,06,24,03,05,12.80
2017,06,24,03,06,12.80
2017,06,24,03,07,12.90
2017,06,24,03,08,13.00
2017,06,24,03,09,13.00
2017,06,24,03,10,13.00
2017,06,24,03,11,13.10
2017,06,24,03,12,13.10
2017,06,24,03,13,13.10
2017,06,24,03,14,13.10
2017,06,24,03,15,13.10
2017,06,24,03,16,13.20
2017,06,24,03,17,13.20
2017,06,24,03,18,13.20
2017,06,24,03,19,13.30
2017,06,24,03,20,13.30
2017,06,24,03,21,13.30
2017,06,24,03,22,13.30
2017,06,24,03,23,13.40
2017,06,24,03,24,13.40
2017,06,24,03,25,13.40
2017,06,24,03,26,13.50
2017,06,24,03,27,13.50
2017,06,24,03,28,13.50
2017,06,24,03,29,13.50
2017,06,24,03,30,13.40
2017,06,24,03,31,13.40
2017,06,24,03,32,13.40
2017,06,24,03,33,13.40
2017,06,24,03,34,13.40
2017,06,24,03,35,13.40
2017,06,24,03,36,13.40
2017,06,24,03,37,13.50
2017,06,24,03,38,13.40
2017,06,24,03,39,13.40
2017,06,24,03,40,13.50
2017,06,24,03,41,13.40
2017,06,24,03,42,13.40
2017,06,24,03,43,13.40
2017,06,24,03,44,13.40
2017,06,24,03,45,13.30
2017,06,24,03,46,13.30
2017,06,24,03,47,13.30
2017,06,24,03,48,13.30
2017,06,24,03,49,13.30
2017,06,24,03,50,13.30
2017,06,24,03,51,13.30
2017,06,24,03,52,13.40
2017,06,24,03,53,13.40
2017,06,24,03,54,13.40
2017,06,24,03,55,13.50
2017,06,24,03,56,13.50
2017,06,24,03,57,13.50
2017,06,24,03,58,13.50
2017,06,24,03,59,13.50
2017,06,24,04,00,13.40
2017,06,24,04,01,13.40
2017,06,24,04,02,13.30
2017,06,24,04,03,13.30
2017,06,24,04,04,13.30
2017,06,24,04,05,13.30
2017,06,24,04,06,13.30
2017,06,24,04,07,13.20
2017,06,24,04,08,13.20
2017,06,24,04,09,13.20
2017,06,24,04,10,13.10
2017,06,24,04,11,13.10
2017,06,24,04,12,13.10
2017,06,24,04,13,13.10
2017,06,24,04,14,13.10
2017,06,24,04,15,13.10
2017,06,24,04,16,13.10
2017,06,24,04,17,13.10
2017,06,24,04,18,13.00
2017,06,24,04,19,13.00
2017,06,24,04,20,13.00
2017,06,24,04,21,12.90
2017,06,24,04,22,12.90
2017,06,24,04,23,12.90
2017,06,24,04,24,12.80
2017,06,24,04,25,12.80
2017,06,24,04,26,12.80
2017,06,24,04,27,12.80
2017,06,24,04,28,12.80
2017,06,24,04,29,12.70
2017,06,24,04,30,12.70
2017,06,24,04,31,12.70
2017,06,24,04,32,12.60
2017,06,24,04,33,12.60
2017,06,24,04,34,12.60
2017,06,24,04,35,12.60
2017,06,24,04,36,12.60
2017,06,24,04,37,12.50
2017,06,24,04,38,12.50
2017,06,24,04,39,12.50
2017,06,24,04,40,12.50
2017,06,24,04,41,12.50
2017,06,24,04,42,12.50
2017,06,24,04,43,12.60
2017,06,24,04,44,12.60
2017,06,24,04,45,12.60
2017,06,24,04,46,12.50
2017,06,24,04,47,12.50
2017,06,24,04,48,12.50
2017,06,24,04,49,12.50
2017,06,24,04,50,12.50
2017,06,24,04,51,12.50
2017,06,24,04,52,12.60
2017,06,24,04,53,12.60
2017,06,24,04,54,12.60
2017,06,24,04,55,12.60
2017,06,24,04,56,12.70
2017,06,24,04,57,12.70
2017,06,24,04,58,12.70
2017,06,24,04,59,12.80
2017,06,24,05,00,12.80
2017,06,24,05,01,12.80
2017,06,24,05,02,12.80
2017,06,24,05,03,12.80
2017,06,24,05,04,12.80
2017,06,24,05,05,12.70
2017,06,24,05,06,12.70
2017,06,24,05,07,12.70
2017,06,24,05,08,12.70
2017,06,24,05,09,12.70
2017,06,24,05,10,12.70
2017,06,24,05,11,12.80
2017,06,24,05,12,12.80
2017,06,24,05,13,12.80
2017,06,24,05,14,12.80
2017,06,24,05,15,12.80
2017,06,24,05,16,12.80
2017,06,24,05,17,12.90
2017,06,24,05,18,12.90
2017,06,24,05,19,12.90
2017,06,24,05,20,12.90
2017,06,24,05,21,12.90
2017,06,24,05,22,12.90
2017,06,24,05,23,12.90
2017,06,24,05,24,12.90
2017,06,24,05,25,12.90
2017,06,24,05,26,12.90
2017,06,24,05,27,12.90
2017,06,24,05,28,12.90
2017,06,24,05,29,12.90
2017,06,24,05,30,12.90
2017,06,24,05,31,12.90
2017,06,24,05,32,13.00
2017,06,24,05,33,13.00
2017,06,24,05,34,13.00
2017,06,24,05,35,13.00
2017,06,24,05,36,13.10
2017,06,24,05,37,13.10
2017,06,24,05,38,13.20
2017,06,24,05,39,13.20
2017,06,24,05,40,13.20
2017,06,24,05,41,13.30
2017,06,24,05,42,13.30
2017,06,24,05,43,13.30
2017,06,24,05,44,13.30
2017,06,24,05,45,13.30
2017,06,24,05,46,13.30
2017,06,24,05,47,13.30
2017,06,24,05,48,13.30
2017,06,24,05,49,13.30
2017,06,24,05,50,13.30
2017,06,24,05,51,13.30
2017,06,24,05,52,13.30
2017,06,24,05,53,13.30
2017,06,24,05,54,13.40
2017,06,24,05,55,13.40
2017,06,24,05,56,13.50
2017,06,24,05,57,13.50
2017,06,24,05,58,13.60
2017,06,24,05,59,13.70
2017,06,24,06,00,13.70
2017,06,24,06,01,13.80
2017,06,24,06,02,13.80
2017,06,24,06,03,13.90
2017,06,24,06,04,13.90
2017,06,24,06,05,14.00
2017,06,24,06,06,14.00
2017,06,24,06,07,14.10
2017,06,24,06,08,14.10
2017,06,24,06,09,14.10
2017,06,24,06,10,14.20
2017,06,24,06,11,14.20
2017,06,24,06,12,14.20
2017,06,24,06,13,14.20
2017,06,24,06,14,14.20
2017,06,24,06,15,14.20
2017,06,24,06,16,14.20
2017,06,24,06,17,14.20
2017,06,24,06,18,14.20
2017,06,24,06,19,14.20
2017,06,24,06,20,14.20
2017,06,24,06,21,14.20
2017,06,24,06,22,14.20
2017,06,24,06,23,14.20
2017,06,24,06,24,14.20
2017,06,24,06,25,14.20
2017,06,24,06,26,14.20
2017,06,24,06,27,14.20
2017,06,24,06,28,14.30
2017,06,24,06,29,14.30
2017,06,24,06,30,14.40
2017,06,24,06,31,14.50
2017,06,24,06,32,14.60
2017,06,24,06,33,14.80
2017,06,24,06,34,14.80
2017,06,24,06,35,14.70
2017,06,24,06,36,14.60
2017,06,24,06,37,14.60
2017,06,24,06,38,14.50
2017,06,24,06,39,14.50
2017,06,24,06,40,14.50
2017,06,24,06,41,14.50
2017,06,24,06,42,14.50
2017,06,24,06,43,14.50
2017,06,24,06,44,14.60
2017,06,24,06,45,14.60
2017,06,24,06,46,14.70
2017,06,24,06,47,14.80
2017,06,24,06,48,14.80
2017,06,24,06,49,14.80
2017,06,24,06,50,14.90
2017,06,24,06,51,14.90
2017,06,24,06,52,15.00
2017,06,24,06,53,15.00
2017,06,24,06,54,15.10
2017,06,24,06,55,15.10
2017,06,24,06,56,15.10
2017,06,24,06,57,15.10
2017,06,24,06,58,15.10
2017,06,24,06,59,15.10
2017,06,24,07,00,15.00
2017,06,24,07,01,15.00
2017,06,24,07,02,14.90
2017,06,24,07,03,14.80
2017,06,24,07,04,14.70
2017,06,24,07,05,14.70
2017,06,24,07,06,14.60
2017,06,24,07,07,14.60
2017,06,24,07,08,14.50
2017,06,24,07,09,14.50
2017,06,24,07,10,14.40
2017,06,24,07,11,14.40
2017,06,24,07,12,14.30
2017,06,24,07,13,14.20
2017,06,24,07,14,14.10
2017,06,24,07,15,14.00
2017,06,24,07,16,14.00
2017,06,24,07,17,13.90
2017,06,24,07,18,13.90
2017,06,24,07,19,13.80
2017,06,24,07,20,13.80
2017,06,24,07,21,13.80
2017,06,24,07,22,13.90
2017,06,24,07,23,13.90
2017,06,24,07,24,13.90
2017,06,24,07,25,13.90
2017,06,24,07,26,13.90
2017,06,24,07,27,13.90
2017,06,24,07,28,14.00
2017,06,24,07,29,14.00
2017,06,24,07,30,14.00
2017,06,24,07,31,14.10
2017,06,24,07,32,14.10
2017,06,24,07,33,14.20
2017,06,24,07,34,14.20
2017,06,24,07,35,14.30
2017,06,24,07,36,14.40
2017,06,24,07,37,14.40
2017,06,24,07,38,14.50
2017,06,24,07,39,14.50
2017,06,24,07,40,14.60
2017,06,24,07,41,14.70
2017,06,24,07,42,14.80
2017,06,24,07,43,14.80
2017,06,24,07,44,14.80
2017,06,24,07,45,14.90
2017,06,24,07,46,14.90
2017,06,24,07,47,14.80
2017,06,24,07,48,14.80
2017,06,24,07,49,14.80
2017,06,24,07,50,14.90
2017,06,24,07,51,14.90
2017,06,24,07,52,14.90
2017,06,24,07,53,15.00
2017,06,24,07,54,15.00
2017,06,24,07,55,15.10
2017,06,24,07,56,15.10
2017,06,24,07,57,15.20
2017,06,24,07,58,15.30
2017,06,24,07,59,15.30
2017,06,24,08,00,15.30
2017,06,24,08,01,15.20
2017,06,24,08,02,15.20
2017,06,24,08,03,15.00
2017,06,24,08,04,14.90
2017,06,24,08,05,14.70
2017,06,24,08,06,14.60
2017,06,24,08,07,14.50
2017,06,24,08,08,14.50
2017,06,24,08,09,14.40
2017,06,24,08,10,14.40
2017,06,24,08,11,14.40
2017,06,24,08,12,14.40
2017,06,24,08,13,14.40
2017,06,24,08,14,14.50
2017,06,24,08,15,14.50
2017,06,24,08,16,14.60
2017,06,24,08,17,14.60
2017,06,24,08,18,14.70
2017,06,24,08,19,14.80
2017,06,24,08,20,14.80
2017,06,24,08,21,14.90
2017,06,24,08,22,15.00
2017,06,24,08,23,15.10
2017,06,24,08,24,15.20
2017,06,24,08,25,15.30
2017,06,24,08,26,15.30
2017,06,24,08,27,15.30
2017,06,24,08,28,15.30
2017,06,24,08,29,15.20
2017,06,24,08,30,15.20
2017,06,24,08,31,15.10
2017,06,24,08,32,15.10
2017,06,24,08,33,14.90
2017,06,24,08,34,14.80
2017,06,24,08,35,14.80
2017,06,24,08,36,14.70
2017,06,24,08,37,14.60
2017,06,24,08,38,14.60
2017,06,24,08,39,14.60
2017,06,24,08,40,14.50
2017,06,24,08,41,14.50
2017,06,24,08,42,14.50
2017,06,24,08,43,14.60
2017,06,24,08,44,14.60
2017,06,24,08,45,14.60
2017,06,24,08,46,14.60
2017,06,24,08,47,14.60
2017,06,24,08,48,14.60
2017,06,24,08,49,14.70
2017,06,24,08,50,14.80
2017,06,24,08,51,14.80
2017,06,24,08,52,14.90
2017,06,24,08,53,15.00
2017,06,24,08,54,15.10
2017,06,24,08,55,15.20
2017,06,24,08,56,15.30
2017,06,24,08,57,15.50
2017,06,24,08,58,15.60
2017,06,24,08,59,15.70
2017,06,24,09,00,15.80
2017,06,24,09,01,16.00
2017,06,24,09,02,16.20
2017,06,24,09,03,16.30
2017,06,24,09,04,16.50
2017,06,24,09,05,16.70
2017,06,24,09,06,16.80
2017,06,24,09,07,17.00
2017,06,24,09,08,17.30
2017,06,24,09,09,17.40
2017,06,24,09,10,17.40
2017,06,24,09,11,17.50
2017,06,24,09,12,17.60
2017,06,24,09,13,17.70
2017,06,24,09,14,17.80
2017,06,24,09,15,18.00
2017,06,24,09,16,18.30
2017,06,24,09,17,18.70
2017,06,24,09,18,19.10
2017,06,24,09,19,19.50
2017,06,24,09,20,19.90
2017,06,24,09,21,20.30
2017,06,24,09,22,20.50
2017,06,24,09,23,20.80
2017,06,24,09,24,21.00
2017,06,24,09,25,21.10
2017,06,24,09,26,21.30
2017,06,24,09,27,21.50
2017,06,24,09,28,21.60
2017,06,24,09,29,21.80
2017,06,24,09,30,22.00
2017,06,24,09,31,22.10
2017,06,24,09,32,22.10
2017,06,24,09,33,22.20
2017,06,24,09,34,22.30
2017,06,24,09,35,22.40
2017,06,24,09,36,22.40
2017,06,24,09,37,22.50
2017,06,24,09,38,22.50
2017,06,24,09,39,22.60
2017,06,24,09,40,22.60
2017,06,24,09,41,22.60
2017,06,24,09,42,22.70
2017,06,24,09,43,22.80
2017,06,24,09,44,22.80
2017,06,24,09,45,22.90
2017,06,24,09,46,22.90
2017,06,24,09,47,22.80
2017,06,24,09,48,22.80
2017,06,24,09,49,22.80
2017,06,24,09,50,22.80
2017,06,24,09,51,22.80
2017,06,24,09,52,22.70
2017,06,24,09,53,22.70
2017,06,24,09,54,22.70
2017,06,24,09,55,22.70
2017,06,24,09,56,22.80
2017,06,24,09,57,22.80
2017,06,24,09,58,22.90
2017,06,24,09,59,22.90
2017,06,24,10,00,22.90
2017,06,24,10,01,22.90
2017,06,24,10,02,22.90
2017,06,24,10,03,22.90
2017,06,24,10,04,23.00
2017,06,24,10,05,23.10
2017,06,24,10,06,23.10
2017,06,24,10,07,23.20
2017,06,24,10,08,23.20
2017,06,24,10,09,23.30
2017,06,24,10,10,23.30
2017,06,24,10,11,23.30
2017,06,24,10,12,23.30
2017,06,24,10,13,23.30
2017,06,24,10,14,23.40
2017,06,24,10,15,23.40
2017,06,24,10,16,23.40
2017,06,24,10,17,23.50
2017,06,24,10,18,23.60
2017,06,24,10,19,23.70
2017,06,24,10,20,23.70
2017,06,24,10,21,23.70
2017,06,24,10,22,23.80
2017,06,24,10,23,23.80
2017,06,24,10,24,23.80
2017,06,24,10,25,23.80
2017,06,24,10,26,23.80
2017,06,24,10,27,23.80
2017,06,24,10,28,23.70
2017,06,24,10,29,23.70
2017,06,24,10,30,23.70
2017,06,24,10,31,23.70
2017,06,24,10,32,23.70
2017,06,24,10,33,23.70
2017,06,24,10,34,23.70
2017,06,24,10,35,23.80
2017,06,24,10,36,23.80
2017,06,24,10,37,23.80
2017,06,24,10,38,23.90
2017,06,24,10,39,23.90
2017,06,24,10,40,23.80
2017,06,24,10,41,23.80
2017,06,24,10,42,23.80
2017,06,24,10,43,23.90
2017,06,24,10,44,24.00
2017,06,24,10,45,24.10
2017,06,24,10,46,24.00
2017,06,24,10,47,23.90
2017,06,24,10,48,24.00
2017,06,24,10,49,24.10
2017,06,24,10,50,24.10
2017,06,24,10,51,24.20
2017,06,24,10,52,24.20
2017,06,24,10,53,24.10
2017,06,24,10,54,24.10
2017,06,24,10,55,24.10
2017,06,24,10,56,24.00
2017,06,24,10,57,23.90
2017,06,24,10,58,23.90
2017,06,24,10,59,23.90
2017,06,24,11,00,23.90
2017,06,24,11,01,23.90
2017,06,24,11,02,24.00
2017,06,24,11,03,24.10
2017,06,24,11,04,24.10
2017,06,24,11,05,24.10
2017,06,24,11,06,24.20
2017,06,24,11,07,24.30
2017,06,24,11,08,24.40
2017,06,24,11,09,24.30
2017,06,24,11,10,24.30
2017,06,24,11,11,24.20
2017,06,24,11,12,24.20
2017,06,24,11,13,24.20
2017,06,24,11,14,24.20
2017,06,24,11,15,24.20
2017,06,24,11,16,24.30
2017,06,24,11,17,24.40
2017,06,24,11,18,24.40
2017,06,24,11,19,24.50
2017,06,24,11,20,24.50
2017,06,24,11,21,24.60
2017,06,24,11,22,24.60
2017,06,24,11,23,24.60
2017,06,24,11,24,24.60
2017,06,24,11,25,24.60
2017,06,24,11,26,24.60
2017,06,24,11,27,24.70
2017,06,24,11,28,24.80
2017,06,24,11,29,24.90
2017,06,24,11,30,25.00
2017,06,24,11,31,24.90
2017,06,24,11,32,24.90
2017,06,24,11,33,24.90
2017,06,24,11,34,24.90
2017,06,24,11,35,24.90
2017,06,24,11,36,24.90
2017,06,24,11,37,24.80
2017,06,24,11,38,24.80
2017,06,24,11,39,24.80
2017,06,24,11,40,24.90
2017,06,24,11,41,24.90
2017,06,24,11,42,24.90
2017,06,24,11,43,24.90
2017,06,24,11,44,24.90
2017,06,24,11,45,25.00
2017,06,24,11,46,25.10
2017,06,24,11,47,25.10
2017,06,24,11,48,25.10
2017,06,24,11,49,25.10
2017,06,24,11,50,25.20
2017,06,24,11,51,25.20
2017,06,24,11,52,25.20
2017,06,24,11,53,25.20
2017,06,24,11,54,25.20
2017,06,24,11,55,25.10
2017,06,24,11,56,25.20
2017,06,24,11,57,25.30
2017,06,24,11,58,25.30
2017,06,24,11,59,25.40
2017,06,24,12,00,25.40
2017,06,24,12,01,25.30
2017,06,24,12,02,25.30
2017,06,24,12,03,25.30
2017,06,24,12,04,25.30
2017,06,24,12,05,25.40
2017,06,24,12,06,25.50
2017,06,24,12,07,25.50
2017,06,24,12,08,25.60
2017,06,24,12,09,25.60
2017,06,24,12,10,25.70
2017,06,24,12,11,25.70
2017,06,24,12,12,25.70
2017,06,24,12,13,25.60
2017,06,24,12,14,25.60
2017,06,24,12,15,25.60
2017,06,24,12,16,25.60
2017,06,24,12,17,25.70
2017,06,24,12,18,25.90
2017,06,24,12,19,25.90
2017,06,24,12,20,25.90
2017,06,24,12,21,26.00
2017,06,24,12,22,26.00
2017,06,24,12,23,26.00
2017,06,24,12,24,26.00
2017,06,24,12,25,26.00
2017,06,24,12,26,25.90
2017,06,24,12,27,25.90
2017,06,24,12,28,26.00
2017,06,24,12,29,26.00
2017,06,24,12,30,26.00
2017,06,24,12,31,26.10
2017,06,24,12,32,26.10
2017,06,24,12,33,26.00
2017,06,24,12,34,25.90
2017,06,24,12,35,25.80
2017,06,24,12,36,25.80
2017,06,24,12,37,25.80
2017,06,24,12,38,25.90
2017,06,24,12,39,26.00
2017,06,24,12,40,26.00
2017,06,24,12,41,26.10
2017,06,24,12,42,26.20
2017,06,24,12,43,26.30
2017,06,24,12,44,26.40
2017,06,24,12,45,26.40
2017,06,24,12,46,26.40
2017,06,24,12,47,26.50
2017,06,24,12,48,26.60
2017,06,24,12,49,26.60
2017,06,24,12,50,26.60
2017,06,24,12,51,26.60
2017,06,24,12,52,26.60
2017,06,24,12,53,26.60
2017,06,24,12,54,26.70
2017,06,24,12,55,26.60
2017,06,24,12,56,26.60
2017,06,24,12,57,26.60
2017,06,24,12,58,26.50
2017,06,24,12,59,26.40
2017,06,24,13,00,26.40
2017,06,24,13,01,26.40
2017,06,24,13,02,26.40
2017,06,24,13,03,26.50
2017,06,24,13,04,26.60
2017,06,24,13,05,26.50
2017,06,24,13,06,26.40
2017,06,24,13,07,26.40
2017,06,24,13,08,26.60
2017,06,24,13,09,26.50
2017,06,24,13,10,26.50
2017,06,24,13,11,26.60
2017,06,24,13,12,26.60
2017,06,24,13,13,26.60
2017,06,24,13,14,26.60
2017,06,24,13,15,26.60
2017,06,24,13,16,26.60
2017,06,24,13,17,26.60
2017,06,24,13,18,26.60
2017,06,24,13,19,26.60
2017,06,24,13,20,26.60
2017,06,24,13,21,26.60
2017,06,24,13,22,26.60
2017,06,24,13,23,26.60
2017,06,24,13,24,26.60
2017,06,24,13,25,26.70
2017,06,24,13,26,26.80
2017,06,24,13,27,26.80
2017,06,24,13,28,26.90
2017,06,24,13,29,26.90
2017,06,24,13,30,26.90
2017,06,24,13,31,26.90
2017,06,24,13,32,26.90
2017,06,24,13,33,26.80
2017,06,24,13,34,26.70
2017,06,24,13,35,26.70
2017,06,24,13,36,26.70
2017,06,24,13,37,26.80
2017,06,24,13,38,26.80
2017,06,24,13,39,26.90
2017,06,24,13,40,27.00
2017,06,24,13,41,27.10
2017,06,24,13,42,27.00
2017,06,24,13,43,26.90
2017,06,24,13,44,26.90
2017,06,24,13,45,26.90
2017,06,24,13,46,26.90
2017,06,24,13,47,26.90
2017,06,24,13,48,27.00
2017,06,24,13,49,27.10
2017,06,24,13,50,27.20
2017,06,24,13,51,27.30
2017,06,24,13,52,27.40
2017,06,24,13,53,27.50
2017,06,24,13,54,27.70
2017,06,24,13,55,27.80
2017,06,24,13,56,27.80
2017,06,24,13,57,27.80
2017,06,24,13,58,27.70
2017,06,24,13,59,27.70
2017,06,24,14,00,27.60
2017,06,24,14,01,27.60
2017,06,24,14,02,27.50
2017,06,24,14,03,27.40
2017,06,24,14,04,27.40
2017,06,24,14,05,27.40
2017,06,24,14,06,27.40
2017,06,24,14,07,27.40
2017,06,24,14,08,27.40
2017,06,24,14,09,27.30
2017,06,24,14,10,27.30
2017,06,24,14,11,27.30
2017,06,24,14,12,27.30
2017,06,24,14,13,27.30
2017,06,24,14,14,27.30
2017,06,24,14,15,27.30
2017,06,24,14,16,27.30
2017,06,24,14,17,27.40
2017,06,24,14,18,27.50
2017,06,24,14,19,27.60
2017,06,24,14,20,27.70
2017,06,24,14,21,27.70
2017,06,24,14,22,27.80
2017,06,24,14,23,27.80
2017,06,24,14,24,27.90
2017,06,24,14,25,27.90
2017,06,24,14,26,27.90
2017,06,24,14,27,27.90
2017,06,24,14,28,27.90
2017,06,24,14,29,28.00
2017,06,24,14,30,28.00
2017,06,24,14,31,28.10
2017,06,24,14,32,28.20
2017,06,24,14,33,28.20
2017,06,24,14,34,28.20
2017,06,24,14,35,28.20
2017,06,24,14,36,28.30
2017,06,24,14,37,28.20
2017,06,24,14,38,28.20
2017,06,24,14,39,28.10
2017,06,24,14,40,28.10
2017,06,24,14,41,28.10
2017,06,24,14,42,28.10
2017,06,24,14,43,28.10
2017,06,24,14,44,28.00
2017,06,24,14,45,28.00
2017,06,24,14,46,28.00
2017,06,24,14,47,28.00
2017,06,24,14,48,28.00
2017,06,24,14,49,28.00
2017,06,24,14,50,28.00
2017,06,24,14,51,28.00
2017,06,24,14,52,28.00
2017,06,24,14,53,28.10
2017,06,24,14,54,28.20
2017,06,24,14,55,28.20
2017,06,24,14,56,28.20
2017,06,24,14,57,28.20
2017,06,24,14,58,28.20
2017,06,24,14,59,28.20
2017,06,24,15,00,28.30
2017,06,24,15,01,28.30
2017,06,24,15,02,28.30
2017,06,24,15,03,28.40
2017,06,24,15,04,28.40
2017,06,24,15,05,28.40
2017,06,24,15,06,28.30
2017,06,24,15,07,28.30
2017,06,24,15,08,28.30
2017,06,24,15,09,28.40
2017,06,24,15,10,28.40
2017,06,24,15,11,28.60
2017,06,24,15,12,28.60
2017,06,24,15,13,28.60
2017,06,24,15,14,28.60
2017,06,24,15,15,28.60
2017,06,24,15,16,28.60
2017,06,24,15,17,28.70
2017,06,24,15,18,28.70
2017,06,24,15,19,28.70
2017,06,24,15,20,28.70
2017,06,24,15,21,28.60
2017,06,24,15,22,28.60
2017,06,24,15,23,28.60
2017,06,24,15,24,28.60
2017,06,24,15,25,28.10
2017,06,24,15,26,26.90
2017,06,24,15,27,25.50
2017,06,24,15,28,24.20
2017,06,24,15,29,23.40
2017,06,24,15,30,22.80
2017,06,24,15,31,22.40
2017,06,24,15,32,21.90
2017,06,24,15,33,21.50
2017,06,24,15,34,21.30
2017,06,24,15,35,21.30
2017,06,24,15,36,21.30
2017,06,24,15,37,21.30
2017,06,24,15,38,21.20
2017,06,24,15,39,21.10
2017,06,24,15,40,21.00
2017,06,24,15,41,20.80
2017,06,24,15,42,20.50
2017,06,24,15,43,20.40
2017,06,24,15,44,20.20
2017,06,24,15,45,20.00
2017,06,24,15,46,19.80
2017,06,24,15,47,19.80
2017,06,24,15,48,19.90
2017,06,24,15,49,20.00
2017,06,24,15,50,20.20
2017,06,24,15,51,20.40
2017,06,24,15,52,20.40
2017,06,24,15,53,20.30
2017,06,24,15,54,20.20
2017,06,24,15,55,20.20
2017,06,24,15,56,20.20
2017,06,24,15,57,20.20
2017,06,24,15,58,20.20
2017,06,24,15,59,20.20
2017,06,24,16,00,20.20
2017,06,24,16,01,20.20
2017,06,24,16,02,20.30
2017,06,24,16,03,20.30
2017,06,24,16,04,20.50
2017,06,24,16,05,20.50
2017,06,24,16,06,20.50
2017,06,24,16,07,20.40
2017,06,24,16,08,20.30
2017,06,24,16,09,20.30
2017,06,24,16,10,20.30
2017,06,24,16,11,20.30
2017,06,24,16,12,20.40
2017,06,24,16,13,20.50
2017,06,24,16,14,20.60
2017,06,24,16,15,20.70
2017,06,24,16,16,20.80
2017,06,24,16,17,20.90
2017,06,24,16,18,21.00
2017,06,24,16,19,21.00
2017,06,24,16,20,21.00
2017,06,24,16,21,21.10
2017,06,24,16,22,21.20
2017,06,24,16,23,21.20
2017,06,24,16,24,21.00
2017,06,24,16,25,20.90
2017,06,24,16,26,20.80
2017,06,24,16,27,20.80
2017,06,24,16,28,20.80
2017,06,24,16,29,20.60
2017,06,24,16,30,20.60
2017,06,24,16,31,20.50
2017,06,24,16,32,20.30
2017,06,24,16,33,20.20
2017,06,24,16,34,20.10
2017,06,24,16,35,20.00
2017,06,24,16,36,19.90
2017,06,24,16,37,19.70
2017,06,24,16,38,19.70
2017,06,24,16,39,19.70
2017,06,24,16,40,19.80
2017,06,24,16,41,19.80
2017,06,24,16,42,19.90
2017,06,24,16,43,19.90
2017,06,24,16,44,19.90
2017,06,24,16,45,19.90
2017,06,24,16,46,20.00
2017,06,24,16,47,20.10
2017,06,24,16,48,20.10
2017,06,24,16,49,20.00
2017,06,24,16,50,19.90
2017,06,24,16,51,19.80
2017,06,24,16,52,19.70
2017,06,24,16,53,19.80
2017,06,24,16,54,19.90
2017,06,24,16,55,19.90
2017,06,24,16,56,19.90
2017,06,24,16,57,19.90
2017,06,24,16,58,20.00
2017,06,24,16,59,20.20
2017,06,24,17,00,20.30
2017,06,24,17,01,20.40
2017,06,24,17,02,20.50
2017,06,24,17,03,20.60
2017,06,24,17,04,20.60
2017,06,24,17,05,20.70
2017,06,24,17,06,20.70
2017,06,24,17,07,20.60
2017,06,24,17,08,20.50
2017,06,24,17,09,20.40
2017,06,24,17,10,20.30
2017,06,24,17,11,20.20
2017,06,24,17,12,20.20
2017,06,24,17,13,20.20
2017,06,24,17,14,20.20
2017,06,24,17,15,20.30
2017,06,24,17,16,20.50
2017,06,24,17,17,20.60
2017,06,24,17,18,20.80
2017,06,24,17,19,21.00